Location: Apeadero de Los Molinos-Guadarrama
(40.7091°N, 4.0689°W)
Time: 13:03:17
(UTC+00:00)

USA 306 - Pass Details

Date: 14 May 2021
Orbit: 565 x 575 km, 54.0° (Epoch: 11 May)

Event Time Altitude Azimuth Distance (km) Brightness Sun altitude
Rises 20:44:12 0° 313° (NW) 2,771 8.5 -13.3°
Reaches altitude 10° 20:46:32 10° 320° (NW) 1,873 6.9 -13.6°
Maximum altitude 20:50:37 44° 33° (NNE) 792 3.6 -14.2°
Enters shadow 20:53:14 20° 98° (E) 1,342 4.3 -14.6°
